• In Russia
  • List of Countries
  • For 7 days
  • Water Temperature
  • Satellite Maps
  • Weather Map
  • Weather Widgets
  • user-avatar
    Login

    Hourly Weather Adelaide

    Today, 21 January, Saturday

    Time Temperature Precipitation Wind Pressure Humidity
    00:00 +16°C° 0 mm 3 mps 755 mmHg 80%
    01:00 +14°C° 0 mm 3 mps 756 mmHg 82%
    02:00 +14°C° 0 mm 3 mps 756 mmHg 83%
    03:00 +15°C° 0 mm 2 mps 756 mmHg 86%
    04:00 +15°C° 0 mm 2 mps 756 mmHg 84%
    05:00 +15°C° 0 mm 2 mps 756 mmHg 82%
    06:00 +15°C° 0 mm 2 mps 756 mmHg 80%
    07:00 +17°C° 0 mm 2 mps 757 mmHg 69%
    08:00 +20°C° 0 mm 2 mps 757 mmHg 58%
    09:00 +23°C° 0 mm 2 mps 757 mmHg 47%
    10:00 +25°C° 0 mm 2 mps 757 mmHg 42%
    11:00 +27°C° 0 mm 2 mps 756 mmHg 36%
    12:00 +29°C° 0 mm 2 mps 756 mmHg 30%
    13:00 +29°C° 0 mm 2 mps 756 mmHg 30%
    14:00 +29°C° 0 mm 3 mps 755 mmHg 31%
    15:00 +29°C° 0 mm 3 mps 755 mmHg 31%
    16:00 +28°C° 0 mm 4 mps 755 mmHg 36%
    17:00 +27°C° 0 mm 4 mps 755 mmHg 41%
    18:00 +26°C° 0 mm 4 mps 755 mmHg 46%
    19:00 +23°C° 0 mm 4 mps 755 mmHg 53%
    20:00 +21°C° 0 mm 4 mps 755 mmHg 60%
    21:00 +20°C° 0 mm 4 mps 755 mmHg 67%
    22:00 +19°C° 0 mm 4 mps 755 mmHg 68%
    23:00 +19°C° 0 mm 4 mps 755 mmHg 69%

    Tomorrow, 22 January, Sunday

    Time Temperature Precipitation Wind Pressure Humidity
    00:00 +19°C° 0 mm 4 mps 755 mmHg 71%
    01:00 +19°C° 0 mm 3 mps 755 mmHg 70%
    02:00 +19°C° 0 mm 3 mps 754 mmHg 70%
    03:00 +19°C° 0 mm 3 mps 754 mmHg 70%
    04:00 +19°C° 0 mm 3 mps 754 mmHg 67%
    05:00 +20°C° 0 mm 3 mps 754 mmHg 63%
    06:00 +20°C° 0 mm 3 mps 755 mmHg 60%
    07:00 +24°C° 0 mm 3 mps 755 mmHg 50%
    08:00 +27°C° 0 mm 3 mps 755 mmHg 40%
    09:00 +30°C° 0 mm 3 mps 755 mmHg 30%
    10:00 +33°C° 0 mm 3 mps 754 mmHg 26%
    11:00 +34°C° 0 mm 2 mps 754 mmHg 23%
    12:00 +36°C° 0 mm 2 mps 753 mmHg 20%
    13:00 +37°C° 0 mm 2 mps 753 mmHg 20%
    14:00 +37°C° 0 mm 2 mps 752 mmHg 20%
    15:00 +37°C° 0 mm 2 mps 751 mmHg 20%
    16:00 +35°C° 0 mm 1 mps 751 mmHg 23%
    17:00 +33°C° 0 mm 1 mps 751 mmHg 26%
    18:00 +32°C° 0 mm 1 mps 751 mmHg 29%
    19:00 +31°C° 0.1 mm 1 mps 751 mmHg 31%
    20:00 +30°C° 0.1 mm 1 mps 751 mmHg 32%
    21:00 +29°C° 0.1 mm 1 mps 751 mmHg 33%
    22:00 +28°C° 0.1 mm 1 mps 751 mmHg 34%
    23:00 +28°C° 0.1 mm 2 mps 751 mmHg 35%

    Day after tomorrow, 23 January, Monday

    Time Temperature Precipitation Wind Pressure Humidity
    00:00 +28°C° 0.1 mm 2 mps 750 mmHg 36%
    01:00 +27°C° 0 mm 2 mps 750 mmHg 37%
    02:00 +27°C° 0 mm 2 mps 749 mmHg 37%
    03:00 +27°C° 0 mm 3 mps 749 mmHg 38%
    04:00 +27°C° 0 mm 3 mps 749 mmHg 37%
    05:00 +27°C° 0 mm 3 mps 749 mmHg 37%
    06:00 +27°C° 0 mm 3 mps 749 mmHg 36%
    07:00 +30°C° 0.3 mm 3 mps 749 mmHg 37%
    08:00 +33°C° 0.3 mm 4 mps 749 mmHg 38%
    09:00 +36°C° 0.3 mm 4 mps 749 mmHg 39%
    10:00 +36°C° 0.1 mm 4 mps 749 mmHg 38%
    11:00 +37°C° 0.1 mm 5 mps 749 mmHg 38%
    12:00 +37°C° 0.1 mm 5 mps 749 mmHg 37%
    13:00 +37°C° 0 mm 5 mps 749 mmHg 37%
    14:00 +36°C° 0 mm 4 mps 749 mmHg 37%
    15:00 +36°C° 0 mm 4 mps 750 mmHg 37%
    16:00 +34°C° 0.1 mm 4 mps 750 mmHg 41%
    17:00 +32°C° 0.1 mm 4 mps 750 mmHg 46%
    18:00 +30°C° 0.1 mm 4 mps 751 mmHg 51%
    19:00 +28°C° 0 mm 4 mps 752 mmHg 56%
    20:00 +27°C° 0 mm 4 mps 752 mmHg 60%
    21:00 +26°C° 0 mm 3 mps 753 mmHg 65%
    22:00 +25°C° 0 mm 3 mps 754 mmHg 66%
    23:00 +23°C° 0 mm 4 mps 754 mmHg 67%

    24 January, Tuesday

    Time Temperature Precipitation Wind Pressure Humidity
    00:00 +22°C° 0 mm 4 mps 755 mmHg 69%
    01:00 +22°C° 0 mm 4 mps 755 mmHg 72%
    02:00 +21°C° 0 mm 4 mps 755 mmHg 75%
    03:00 +20°C° 0 mm 4 mps 755 mmHg 78%
    04:00 +20°C° 0 mm 4 mps 756 mmHg 76%
    05:00 +20°C° 0 mm 4 mps 757 mmHg 75%
    06:00 +20°C° 0 mm 5 mps 758 mmHg 74%
    07:00 +21°C° 0 mm 5 mps 758 mmHg 66%
    08:00 +22°C° 0 mm 5 mps 759 mmHg 59%
    09:00 +23°C° 0 mm 5 mps 759 mmHg 51%
    10:00 +25°C° 0 mm 5 mps 759 mmHg 48%
    11:00 +26°C° 0 mm 5 mps 759 mmHg 45%
    12:00 +26°C° 0 mm 5 mps 759 mmHg 43%
    13:00 +26°C° 0 mm 5 mps 759 mmHg 43%
    14:00 +26°C° 0 mm 5 mps 759 mmHg 43%
    15:00 +26°C° 0 mm 6 mps 759 mmHg 43%
    16:00 +24°C° 0 mm 6 mps 759 mmHg 47%
    17:00 +23°C° 0 mm 6 mps 760 mmHg 52%
    18:00 +21°C° 0 mm 6 mps 760 mmHg 56%
    19:00 +20°C° 0 mm 5 mps 760 mmHg 59%
    20:00 +19°C° 0 mm 5 mps 761 mmHg 62%
    21:00 +16°C° 0 mm 5 mps 761 mmHg 65%
    22:00 +16°C° 0 mm 5 mps 761 mmHg 67%
    23:00 +17°C° 0 mm 4 mps 761 mmHg 69%

    25 January, Wednesday

    Time Temperature Precipitation Wind Pressure Humidity
    00:00 +17°C° 0 mm 4 mps 761 mmHg 71%
    01:00 +15°C° 0 mm 4 mps 761 mmHg 72%
    02:00 +15°C° 0 mm 4 mps 761 mmHg 73%
    03:00 +15°C° 0 mm 4 mps 761 mmHg 74%
    04:00 +15°C° 0 mm 4 mps 761 mmHg 72%
    05:00 +16°C° 0 mm 3 mps 761 mmHg 70%
    06:00 +16°C° 0 mm 3 mps 762 mmHg 69%
    07:00 +18°C° 0 mm 3 mps 762 mmHg 60%
    08:00 +21°C° 0 mm 3 mps 762 mmHg 51%
    09:00 +24°C° 0 mm 2 mps 762 mmHg 42%
    10:00 +26°C° 0 mm 3 mps 761 mmHg 38%
    11:00 +28°C° 0 mm 3 mps 761 mmHg 34%
    12:00 +29°C° 0 mm 3 mps 760 mmHg 30%
    13:00 +29°C° 0 mm 4 mps 760 mmHg 31%
    14:00 +29°C° 0 mm 4 mps 760 mmHg 33%
    15:00 +29°C° 0 mm 5 mps 759 mmHg 34%
    16:00 +27°C° 0 mm 5 mps 760 mmHg 39%
    17:00 +26°C° 0 mm 5 mps 760 mmHg 43%
    18:00 +23°C° 0 mm 5 mps 760 mmHg 47%
    19:00 +21°C° 0 mm 5 mps 760 mmHg 54%
    20:00 +20°C° 0 mm 5 mps 761 mmHg 60%
    21:00 +17°C° 0 mm 5 mps 761 mmHg 67%
    22:00 +17°C° 0 mm 5 mps 761 mmHg 68%
    23:00 +16°C° 0 mm 5 mps 761 mmHg 70%

    26 January, Thursday

    Time Temperature Precipitation Wind Pressure Humidity
    00:00 +17°C° 0 mm 4 mps 760 mmHg 72%
    01:00 +17°C° 0 mm 4 mps 760 mmHg 74%
    02:00 +17°C° 0 mm 4 mps 760 mmHg 76%
    03:00 +15°C° 0 mm 4 mps 760 mmHg 78%
    04:00 +15°C° 0 mm 4 mps 761 mmHg 75%
    05:00 +17°C° 0 mm 3 mps 761 mmHg 73%
    06:00 +17°C° 0 mm 3 mps 761 mmHg 71%
    07:00 +19°C° 0 mm 3 mps 761 mmHg 60%
    08:00 +22°C° 0 mm 3 mps 761 mmHg 49%
    09:00 +25°C° 0 mm 3 mps 761 mmHg 38%
    10:00 +27°C° 0 mm 3 mps 761 mmHg 34%
    11:00 +29°C° 0 mm 3 mps 760 mmHg 29%
    12:00 +31°C° 0 mm 3 mps 760 mmHg 24%
    13:00 +31°C° 0 mm 3 mps 759 mmHg 25%
    14:00 +32°C° 0 mm 4 mps 759 mmHg 25%
    15:00 +32°C° 0 mm 4 mps 758 mmHg 26%
    16:00 +29°C° 0 mm 5 mps 758 mmHg 32%
    17:00 +28°C° 0 mm 5 mps 758 mmHg 39%
    18:00 +26°C° 0 mm 5 mps 758 mmHg 46%
    19:00 +23°C° 0 mm 5 mps 758 mmHg 52%
    20:00 +22°C° 0 mm 5 mps 758 mmHg 59%
    21:00 +20°C° 0 mm 4 mps 759 mmHg 66%
    22:00 +20°C° 0 mm 4 mps 758 mmHg 67%
    23:00 +20°C° 0 mm 4 mps 758 mmHg 68%
    Show more